Location: Madrid
(40.4000°N, 3.6830°W)
Time: 00:00:06
(UTC+02:00)

ISS - Pass Details

Date: 03 August 2020
Orbit: 418 x 420 km, 51.6° (Epoch: 08 August)

Event Time Altitude Azimuth Distance (km) Brightness Sun altitude
Rises 23:35:34 0° 285° (WNW) 2,365 1.0 -20.8°
Reaches altitude 10° 23:39:30 10° 239° (WSW) 1,495 -0.9 -21.3°
Maximum altitude 23:39:53 10° 232° (SW) 1,485 -0.9 -21.3°
Enters shadow 23:39:54 10° 232° (SW) 1,485 -0.9 -21.3°
